Location: Acheville
(50.3840°N, 2.8827°E)
Time: 19:19:18
(UTC+00:00)

CSL-04 Debris - Pass Details

Date: 24 October 2021
Orbit: 827 x 847 km, 98.9° (Epoch: 07 December)

Event Time Altitude Azimuth Distance (km) Brightness Sun altitude
Exits shadow 18:44:17 25° 147° (SSE) 1,616 5.3 -20.6°
Maximum altitude 18:47:27 68° 70° (ENE) 896 4.1 -21.1°
Drops below altitude 10° 18:52:52 10° 349° (N) 2,459 6.8 -22.0°
Sets 18:55:14 0° 347° (NNW) 3,401 7.6 -22.4°
